PAKSAT-1R

Last updated on Dec. 5, 2020, 6:14 a.m. UTC

1 37779U 11042A   20339.75862963  .00000170  00000-0  00000-0 0  9992
2 37779   0.0442 142.8244 0002779 169.8852  72.4298  1.00270823 34219
UTC
Height (km)
Latitude
Longitude
Inclination
Orbital Period
UTC large
Height (km)
Speed (km/s)
/
Latitude / Longitude
Inclination (degrees)
Orbital Period (minutes)
Azimuth
Elevation
Range (km)
Doppler Factor
iOS Compass Heading
iOS Angle

Next 30 passes for location: Hong Kong

Rise time Rise Azimuth (degrees) Set time Set Azimuth (degrees) Duration Max altitude (degrees)

No matching passes for this satellites